,,PA_Meas_PMT16A,,PR_Meas_QMR101_102,,RH_Meas_QMH101,,SR_Meas_QMS101,,TA_Meas_QMH101,,GenWind,,GenWind,
time,status,PA,status,PR,status,RH,status,SR,status,TA,status,DirAvg,status,SpdAvg,
2012-04-22, 00:00:05,VALID,918.262,VALID,0,VALID,91.5877,VALID,0,VALID,20.5367,VALID,355,VALID,0.680078,
2012-04-22, 00:01:05,VALID,918.221,VALID,0,VALID,91.5572,VALID,0,VALID,20.5578,VALID,355,VALID,0.624219,
2012-04-22, 00:02:05,VALID,918.23,VALID,0,VALID,91.5877,VALID,0.107441,VALID,20.5789,VALID,355,VALID,0.380078,
2012-04-22, 00:03:05,VALID,918.221,VALID,0,VALID,91.5877,VALID,0,VALID,20.5578,VALID,5,VALID,0.911328,
2012-04-22, 00:04:05,VALID,918.175,VALID,0,VALID,91.6945,VALID,0.107441,VALID,20.5578,VALID,6,VALID,0.732813,
2012-04-22, 00:05:05,VALID,918.156,VALID,0,VALID,91.7173,VALID,0,VALID,20.5578,VALID,9,VALID,1.22656,
2012-04-22, 00:06:05,VALID,918.149,VALID,0,VALID,91.7859,VALID,0.107441,VALID,20.5578,VALID,11,VALID,1.06328,
2012-04-22, 00:07:05,VALID,918.115,VALID,0,VALID,91.8469,VALID,0,VALID,20.5578,VALID,11,VALID,0.678125,
2012-04-22, 00:08:05,VALID,918.091,VALID,0,VALID,91.8927,VALID,0,VALID,20.5578,VALID,10,VALID,0.813672,
2012-04-22, 00:09:05,VALID,918.056,VALID,0,VALID,91.9613,VALID,0,VALID,20.5383,VALID,11,VALID,0.971094,
2012-04-22, 00:10:05,VALID,918.035,VALID,0,VALID,91.9841,VALID,0,VALID,20.5383,VALID,11,VALID,0.673437,
2012-04-22, 00:11:05,VALID,918.012,VALID,0,VALID,91.9689,VALID,0,VALID,20.5773,VALID,11,VALID,0.885547,
2012-04-22, 00:12:05,VALID,918.03,VALID,0,VALID,91.9231,VALID,0,VALID,20.5968,VALID,11,VALID,0.61875,
2012-04-22, 00:13:05,VALID,917.972,VALID,0,VALID,91.8317,VALID,0.107441,VALID,20.6163,VALID,11,VALID,0.849609,
2012-04-22, 00:14:05,VALID,917.952,VALID,0,VALID,91.8012,VALID,0.107441,VALID,20.6163,VALID,11,VALID,0.772656,
2012-04-22, 00:15:05,VALID,917.956,VALID,0,VALID,91.7859,VALID,0,VALID,20.6569,VALID,10,VALID,0.752734,
2012-04-22, 00:16:05,VALID,917.933,VALID,0,VALID,91.7478,VALID,0.107441,VALID,20.6553,VALID,11,VALID,0.544141,
2012-04-22, 00:17:05,VALID,917.904,VALID,0,VALID,91.7402,VALID,0.107441,VALID,20.6748,VALID,11,VALID,0.55,
2012-04-22, 00:18:05,VALID,917.881,VALID,0,VALID,91.5953,VALID,0,VALID,20.6748,VALID,10,VALID,0.980469,
2012-04-22, 00:19:05,VALID,917.836,VALID,0,VALID,91.603,VALID,0.107441,VALID,20.6748,VALID,10,VALID,0.961328,
2012-04-22, 00:20:05,VALID,917.858,VALID,0,VALID,91.6563,VALID,0,VALID,20.6748,VALID,10,VALID,1.10977,
2012-04-22, 00:21:05,VALID,917.835,VALID,0,VALID,91.7249,VALID,0.107441,VALID,20.6553,VALID,10,VALID,0.625391,
2012-04-22, 00:22:05,VALID,917.798,VALID,0,VALID,91.7783,VALID,0,VALID,20.6764,VALID,10,VALID,0.650781,
2012-04-22, 00:23:05,VALID,917.794,VALID,0,VALID,91.824,VALID,0,VALID,20.6553,VALID,10,VALID,1.15273,
2012-04-22, 00:24:05,VALID,917.77,VALID,0,VALID,91.7478,VALID,0,VALID,20.6748,VALID,10,VALID,0.691797,
2012-04-22, 00:25:05,VALID,917.773,VALID,0,VALID,91.8088,VALID,0.107441,VALID,20.6748,VALID,10,VALID,0.48125,
2012-04-22, 00:26:05,VALID,917.762,VALID,0,VALID,91.824,VALID,0.107441,VALID,20.6748,VALID,10,VALID,0.548437,
2012-04-22, 00:27:05,VALID,917.759,VALID,0,VALID,91.8164,VALID,0,VALID,20.6748,VALID,10,VALID,0.766406,
2012-04-22, 00:28:05,VALID,917.776,VALID,0,VALID,91.8164,VALID,0.107441,VALID,20.6748,VALID,10,VALID,0.645312,
2012-04-22, 00:29:05,VALID,917.752,VALID,0,VALID,91.8545,VALID,0.107441,VALID,20.6748,VALID,10,VALID,0.893359,
2012-04-22, 00:30:05,VALID,917.761,VALID,0,VALID,91.9003,VALID,0.107441,VALID,20.6748,VALID,10,VALID,1.17656,
2012-04-22, 00:31:05,VALID,917.743,VALID,0,VALID,91.9231,VALID,0,VALID,20.6748,VALID,10,VALID,0.830859,
2012-04-22, 00:32:05,VALID,917.729,VALID,0,VALID,92.007,VALID,0.107441,VALID,20.6553,VALID,10,VALID,0.536328,
2012-04-22, 00:33:05,VALID,917.704,VALID,0,VALID,92.0223,VALID,0,VALID,20.6764,VALID,10,VALID,0.845703,
2012-04-22, 00:34:05,VALID,917.728,VALID,0,VALID,92.068,VALID,0.107441,VALID,20.6553,VALID,10,VALID,0.794922,
2012-04-22, 00:35:05,VALID,917.71,VALID,0,VALID,92.1366,VALID,0,VALID,20.6358,VALID,10,VALID,0.56875,
2012-04-22, 00:36:05,VALID,917.696,VALID,0,VALID,92.2357,VALID,0.107441,VALID,20.6358,VALID,356,VALID,0.686719,
2012-04-22, 00:37:05,VALID,917.699,VALID,0,VALID,92.251,VALID,0.107441,VALID,20.6358,VALID,31,VALID,0.888281,
2012-04-22, 00:38:05,VALID,917.678,VALID,0,VALID,92.2738,VALID,0.107441,VALID,20.6358,VALID,31,VALID,0.678906,
2012-04-22, 00:39:05,VALID,917.654,VALID,0,VALID,92.2281,VALID,0,VALID,20.6553,VALID,31,VALID,0.587891,
2012-04-22, 00:40:05,VALID,917.641,VALID,0,VALID,92.2357,VALID,0.107441,VALID,20.6163,VALID,31,VALID,0.578906,
2012-04-22, 00:41:05,VALID,917.641,VALID,0,VALID,92.3196,VALID,0.107441,VALID,20.5968,VALID,31,VALID,0.554688,
2012-04-22, 00:42:05,VALID,917.612,VALID,0,VALID,92.411,VALID,0.107441,VALID,20.5773,VALID,31,VALID,0.503516,
2012-04-22, 00:43:05,VALID,917.611,VALID,0,VALID,92.4949,VALID,0,VALID,20.5773,VALID,31,VALID,0.390234,
2012-04-22, 00:44:05,VALID,917.61,VALID,0,VALID,92.594,VALID,0,VALID,20.5578,VALID,31,VALID,0.392188,
2012-04-22, 00:45:05,VALID,917.576,VALID,0,VALID,92.6855,VALID,0.107441,VALID,20.5578,VALID,31,VALID,0.0847656,
2012-04-22, 00:46:05,VALID,917.586,VALID,0,VALID,92.7389,VALID,0,VALID,20.5789,VALID,31,VALID,0.882422,
2012-04-22, 00:47:05,VALID,917.574,VALID,0,VALID,92.7084,VALID,0,VALID,20.5578,VALID,31,VALID,0.0664063,
2012-04-22, 00:48:05,VALID,917.514,VALID,0,VALID,92.7693,VALID,0,VALID,20.5578,VALID,31,VALID,0.217578,
2012-04-22, 00:49:05,VALID,917.531,VALID,0,VALID,92.8303,VALID,0.107441,VALID,20.5578,VALID,31,VALID,0.0234375,
2012-04-22, 00:50:05,VALID,917.496,VALID,0,VALID,92.8685,VALID,0.107441,VALID,20.5578,VALID,31,VALID,0.00117188,
2012-04-22, 00:51:05,VALID,917.493,VALID,0,VALID,92.9752,VALID,0.107441,VALID,20.5578,VALID,31,VALID,0.349609,
2012-04-22, 00:52:05,VALID,917.455,VALID,0,VALID,92.9523,VALID,0.107441,VALID,20.5773,VALID,31,VALID,0.458594,
2012-04-22, 00:53:05,VALID,917.44,VALID,0,VALID,92.8151,VALID,0,VALID,20.5984,VALID,31,VALID,0.378516,
2012-04-22, 00:54:05,VALID,917.439,VALID,0,VALID,92.8989,VALID,0,VALID,20.5562,VALID,31,VALID,0.398438,
2012-04-22, 00:55:05,VALID,917.429,VALID,0,VALID,92.9142,VALID,0,VALID,20.5984,VALID,31,VALID,0.716406,
2012-04-22, 00:56:05,VALID,917.432,VALID,0,VALID,92.8303,VALID,0,VALID,20.5578,VALID,31,VALID,0.678125,
2012-04-22, 00:57:05,VALID,917.401,VALID,0,VALID,92.9676,VALID,0,VALID,20.5594,VALID,31,VALID,0.999609,
2012-04-22, 00:58:05,VALID,917.395,VALID,0,VALID,93.0743,VALID,0,VALID,20.5383,VALID,31,VALID,0.9875,
2012-04-22, 00:59:05,VALID,917.403,VALID,0,VALID,93.1429,VALID,0,VALID,20.5594,VALID,18,VALID,1.19023,
2012-04-22, 01:00:05,VALID,917.385,VALID,0,VALID,93.2115,VALID,0,VALID,20.5383,VALID,18,VALID,1.18516,
2012-04-22, 01:01:05,VALID,917.356,VALID,0,VALID,93.1963,VALID,0,VALID,20.5578,VALID,18,VALID,1.35273,
2012-04-22, 01:02:05,VALID,917.385,VALID,0,VALID,93.1581,VALID,0,VALID,20.5984,VALID,18,VALID,0.898828,
2012-04-22, 01:03:05,VALID,917.334,VALID,0,VALID,93.0514,VALID,0,VALID,20.5968,VALID,18,VALID,1.12344,
2012-04-22, 01:04:05,VALID,917.346,VALID,0,VALID,93.0057,VALID,0,VALID,20.5968,VALID,6,VALID,0.810547,
2012-04-22, 01:05:05,VALID,917.331,VALID,0,VALID,92.9599,VALID,0,VALID,20.5984,VALID,6,VALID,0.920313,
2012-04-22, 01:06:05,VALID,917.326,VALID,0,VALID,93.0133,VALID,0,VALID,20.5773,VALID,6,VALID,0.494141,
2012-04-22, 01:07:05,VALID,917.32,VALID,0,VALID,92.9828,VALID,0,VALID,20.5984,VALID,6,VALID,0.539844,
2012-04-22, 01:08:05,VALID,917.295,VALID,0,VALID,92.9676,VALID,0,VALID,20.5789,VALID,6,VALID,0.596875,
2012-04-22, 01:09:05,VALID,917.308,VALID,0,VALID,92.9599,VALID,0,VALID,20.5773,VALID,6,VALID,0.273047,
2012-04-22, 01:10:05,VALID,917.313,VALID,0,VALID,92.9981,VALID,0,VALID,20.5773,VALID,6,VALID,0.378906,
2012-04-22, 01:11:05,VALID,917.265,VALID,0,VALID,92.8837,VALID,0,VALID,20.5984,VALID,6,VALID,0.592969,
2012-04-22, 01:12:05,VALID,917.257,VALID,0,VALID,92.8456,VALID,0,VALID,20.5968,VALID,6,VALID,0.711328,
2012-04-22, 01:13:05,VALID,917.273,VALID,0,VALID,92.8303,VALID,0,VALID,20.6179,VALID,6,VALID,0.478125,
2012-04-22, 01:14:05,VALID,917.254,VALID,0,VALID,92.7922,VALID,0,VALID,20.6179,VALID,6,VALID,0.226563,
2012-04-22, 01:15:05,VALID,917.241,VALID,0,VALID,92.777,VALID,0,VALID,20.6163,VALID,6,VALID,0.273828,
2012-04-22, 01:16:05,VALID,917.23,VALID,0,VALID,92.7541,VALID,0,VALID,20.6179,VALID,6,VALID,0.270312,
2012-04-22, 01:17:05,VALID,917.21,VALID,0,VALID,92.7465,VALID,0,VALID,20.6179,VALID,6,VALID,0.0917969,
2012-04-22, 01:18:05,VALID,917.204,VALID,0,VALID,92.7465,VALID,0,VALID,20.5968,VALID,6,VALID,0,
2012-04-22, 01:19:05,VALID,917.197,VALID,0,VALID,92.7389,VALID,0,VALID,20.5968,VALID,6,VALID,0,
2012-04-22, 01:20:05,VALID,917.182,VALID,0,VALID,92.777,VALID,0,VALID,20.5968,VALID,5,VALID,0,
2012-04-22, 01:21:05,VALID,917.176,VALID,0,VALID,92.7541,VALID,0,VALID,20.5968,VALID,6,VALID,0,
2012-04-22, 01:22:05,VALID,917.186,VALID,0,VALID,92.7236,VALID,0,VALID,20.6374,VALID,6,VALID,0,
2012-04-22, 01:23:05,VALID,917.15,VALID,0,VALID,92.6931,VALID,0,VALID,20.6585,VALID,6,VALID,0,
2012-04-22, 01:24:05,VALID,917.118,VALID,0,VALID,92.6474,VALID,0,VALID,20.6163,VALID,6,VALID,0,
2012-04-22, 01:25:05,VALID,917.132,VALID,0,VALID,92.5788,VALID,0,VALID,20.6358,VALID,6,VALID,0,
2012-04-22, 01:26:05,VALID,917.135,VALID,0,VALID,92.5483,VALID,0,VALID,20.6358,VALID,6,VALID,0,
2012-04-22, 01:27:05,VALID,917.121,VALID,0,VALID,92.5635,VALID,0,VALID,20.6569,VALID,6,VALID,0,
2012-04-22, 01:28:05,VALID,917.111,VALID,0,VALID,92.6016,VALID,0,VALID,20.6358,VALID,6,VALID,0,
2012-04-22, 01:29:05,VALID,917.097,VALID,0,VALID,92.6093,VALID,0,VALID,20.6163,VALID,6,VALID,0,
2012-04-22, 01:30:05,VALID,917.066,VALID,0,VALID,92.6016,VALID,0,VALID,20.6163,VALID,6,VALID,0,
2012-04-22, 01:31:05,VALID,917.026,VALID,0,VALID,92.6397,VALID,0,VALID,20.6358,VALID,6,VALID,0,
2012-04-22, 01:32:05,VALID,917.023,VALID,0,VALID,92.6093,VALID,0,VALID,20.6374,VALID,6,VALID,0,
2012-04-22, 01:33:05,VALID,917.039,VALID,0,VALID,92.5864,VALID,0,VALID,20.6163,VALID,6,VALID,0,
2012-04-22, 01:34:05,VALID,917.016,VALID,0,VALID,92.6245,VALID,0,VALID,20.6358,VALID,6,VALID,0,
2012-04-22, 01:35:05,VALID,917.017,VALID,0,VALID,92.5406,VALID,0,VALID,20.6764,VALID,6,VALID,0,
2012-04-22, 01:36:05,VALID,916.973,VALID,0,VALID,92.4797,VALID,0,VALID,20.6764,VALID,6,VALID,0,
2012-04-22, 01:37:05,VALID,916.988,VALID,0,VALID,92.3806,VALID,0,VALID,20.7154,VALID,6,VALID,0,
2012-04-22, 01:38:05,VALID,916.956,VALID,0,VALID,92.2128,VALID,0,VALID,20.7349,VALID,6,VALID,0,
2012-04-22, 01:39:05,VALID,916.95,VALID,0,VALID,92.0985,VALID,0,VALID,20.7544,VALID,6,VALID,0,
2012-04-22, 01:40:05,VALID,916.943,VALID,0,VALID,91.9231,VALID,0,VALID,20.7544,VALID,6,VALID,0,
2012-04-22, 01:41:05,VALID,916.922,VALID,0,VALID,91.8012,VALID,0,VALID,20.7739,VALID,6,VALID,0,
2012-04-22, 01:42:05,VALID,916.945,VALID,0,VALID,91.7249,VALID,0,VALID,20.795,VALID,6,VALID,0,
2012-04-22, 01:43:05,VALID,916.935,VALID,0,VALID,91.7021,VALID,0,VALID,20.7934,VALID,6,VALID,0,
2012-04-22, 01:44:05,VALID,916.922,VALID,0,VALID,91.6335,VALID,0,VALID,20.7934,VALID,6,VALID,0,
2012-04-22, 01:45:05,VALID,916.902,VALID,0,VALID,91.6258,VALID,0,VALID,20.7934,VALID,6,VALID,0,
2012-04-22, 01:46:05,VALID,916.886,VALID,0,VALID,91.5344,VALID,0,VALID,20.7934,VALID,6,VALID,0,
2012-04-22, 01:47:05,VALID,916.868,VALID,0,VALID,91.4048,VALID,0,VALID,20.8129,VALID,6,VALID,0,
2012-04-22, 01:48:05,VALID,916.861,VALID,0,VALID,91.2294,VALID,0,VALID,20.834,VALID,6,VALID,0,
2012-04-22, 01:49:05,VALID,916.835,VALID,0,VALID,90.9778,VALID,0,VALID,20.834,VALID,6,VALID,0,
2012-04-22, 01:50:05,VALID,916.825,VALID,0,VALID,90.9855,VALID,0,VALID,20.795,VALID,6,VALID,0,
2012-04-22, 01:51:05,VALID,916.813,VALID,0,VALID,91.2599,VALID,0,VALID,20.756,VALID,6,VALID,0,
2012-04-22, 01:52:05,VALID,916.795,VALID,0,VALID,91.5267,VALID,0,VALID,20.7154,VALID,6,VALID,0,
2012-04-22, 01:53:05,VALID,916.775,VALID,0,VALID,91.6868,VALID,0,VALID,20.6959,VALID,6,VALID,0,
2012-04-22, 01:54:05,VALID,916.732,VALID,0,VALID,91.7631,VALID,0,VALID,20.6764,VALID,6,VALID,0,
2012-04-22, 01:55:05,VALID,916.721,VALID,0,VALID,91.8622,VALID,0,VALID,20.6975,VALID,6,VALID,0,
2012-04-22, 01:56:05,VALID,916.677,VALID,0,VALID,91.9613,VALID,0,VALID,20.6975,VALID,6,VALID,0,
2012-04-22, 01:57:05,VALID,916.667,VALID,0,VALID,92.0909,VALID,0,VALID,20.6764,VALID,6,VALID,0,
2012-04-22, 01:58:05,VALID,916.634,VALID,0,VALID,92.1747,VALID,0,VALID,20.6975,VALID,6,VALID,0,
2012-04-22, 01:59:05,VALID,916.607,VALID,0,VALID,92.1747,VALID,0,VALID,20.6569,VALID,6,VALID,0,
2012-04-22, 02:00:05,VALID,916.595,VALID,0,VALID,92.2205,VALID,0,VALID,20.678,VALID,6,VALID,0,
2012-04-22, 02:01:05,VALID,916.561,VALID,0,VALID,92.2281,VALID,0,VALID,20.6569,VALID,6,VALID,0,
2012-04-22, 02:02:05,VALID,916.539,VALID,0,VALID,92.1137,VALID,0,VALID,20.6569,VALID,6,VALID,0,
2012-04-22, 02:03:05,VALID,916.529,VALID,0,VALID,92.1823,VALID,0,VALID,20.6585,VALID,6,VALID,0,
2012-04-22, 02:04:05,VALID,916.489,VALID,0,VALID,92.2128,VALID,0,VALID,20.6179,VALID,6,VALID,0,
2012-04-22, 02:05:05,VALID,916.485,VALID,0,VALID,92.251,VALID,0,VALID,20.5984,VALID,6,VALID,0,
2012-04-22, 02:06:05,VALID,916.492,VALID,0,VALID,92.3424,VALID,0,VALID,20.5789,VALID,6,VALID,0,
2012-04-22, 02:07:05,VALID,916.486,VALID,0,VALID,92.3043,VALID,0,VALID,20.5804,VALID,6,VALID,0,
2012-04-22, 02:08:05,VALID,916.455,VALID,0,VALID,92.3729,VALID,0,VALID,20.4993,VALID,5,VALID,0,
2012-04-22, 02:09:05,VALID,916.462,VALID,0,VALID,92.4339,VALID,0,VALID,20.5024,VALID,6,VALID,0,
2012-04-22, 02:10:05,VALID,916.455,VALID,0,VALID,92.6702,VALID,0.107441,VALID,20.4408,VALID,6,VALID,0,
2012-04-22, 02:11:05,VALID,916.427,VALID,0,VALID,92.8303,VALID,0,VALID,20.4197,VALID,6,VALID,0,
2012-04-22, 02:12:05,VALID,916.442,VALID,0,VALID,92.9752,VALID,0,VALID,20.4634,VALID,6,VALID,0,
2012-04-22, 02:13:05,VALID,916.396,VALID,0,VALID,92.8837,VALID,0,VALID,20.4197,VALID,6,VALID,0,
2012-04-22, 02:14:05,VALID,916.394,VALID,0,VALID,92.8456,VALID,0,VALID,20.3807,VALID,6,VALID,0,
2012-04-22, 02:15:05,VALID,916.363,VALID,0,VALID,92.9218,VALID,0,VALID,20.3012,VALID,6,VALID,0,
2012-04-22, 02:16:05,VALID,916.344,VALID,0,VALID,93.1353,VALID,0,VALID,20.3043,VALID,6,VALID,0,
2012-04-22, 02:17:05,VALID,916.334,VALID,0,VALID,93.3868,VALID,0,VALID,20.2848,VALID,6,VALID,0,
2012-04-22, 02:18:05,VALID,916.315,VALID,0,VALID,93.6918,VALID,0.107441,VALID,20.2458,VALID,6,VALID,0,
2012-04-22, 02:19:05,VALID,916.316,VALID,0,VALID,93.7833,VALID,0.107441,VALID,20.2458,VALID,6,VALID,0,
2012-04-22, 02:20:05,VALID,916.323,VALID,0,VALID,93.6918,VALID,0,VALID,20.1873,VALID,6,VALID,0,
2012-04-22, 02:21:05,VALID,916.293,VALID,0,VALID,93.7451,VALID,0,VALID,20.1693,VALID,6,VALID,0,
2012-04-22, 02:22:05,VALID,916.307,VALID,0,VALID,93.8595,VALID,0.107441,VALID,20.1093,VALID,6,VALID,0,
2012-04-22, 02:23:05,VALID,916.314,VALID,0,VALID,94.1111,VALID,0,VALID,20.0898,VALID,6,VALID,0.142969,
2012-04-22, 02:24:05,VALID,916.302,VALID,0,VALID,94.2864,VALID,0,VALID,20.0703,VALID,6,VALID,0.640625,
2012-04-22, 02:25:05,VALID,916.278,VALID,0,VALID,94.3779,VALID,0,VALID,20.0703,VALID,6,VALID,0.637891,
2012-04-22, 02:26:05,VALID,916.255,VALID,0,VALID,94.477,VALID,0,VALID,20.0703,VALID,6,VALID,0.503906,
2012-04-22, 02:27:05,VALID,916.268,VALID,0,VALID,94.5304,VALID,0,VALID,20.0508,VALID,6,VALID,0.441797,
2012-04-22, 02:28:05,VALID,916.254,VALID,0,VALID,94.5532,VALID,0,VALID,20.0703,VALID,6,VALID,0.205859,
2012-04-22, 02:29:05,VALID,916.255,VALID,0,VALID,94.5837,VALID,0.107441,VALID,20.0913,VALID,5,VALID,0.101172,
2012-04-22, 02:30:05,VALID,916.247,VALID,0,VALID,94.5913,VALID,0,VALID,20.0703,VALID,6,VALID,0,
2012-04-22, 02:31:05,VALID,916.267,VALID,0,VALID,94.5913,VALID,0,VALID,20.1108,VALID,5,VALID,0.236719,
2012-04-22, 02:32:05,VALID,916.247,VALID,0,VALID,94.5609,VALID,0,VALID,20.1093,VALID,6,VALID,0.0695312,
2012-04-22, 02:33:04,VALID,916.229,VALID,0,VALID,94.5227,VALID,0.107441,VALID,20.1288,VALID,6,VALID,0.288281,
2012-04-22, 02:34:04,VALID,916.248,VALID,0,VALID,94.4922,VALID,0,VALID,20.1483,VALID,6,VALID,0.266406,
2012-04-22, 02:35:04,VALID,916.218,VALID,0,VALID,94.3093,VALID,0,VALID,20.1678,VALID,6,VALID,0.20625,
2012-04-22, 02:36:04,VALID,916.198,VALID,0,VALID,94.2026,VALID,0,VALID,20.1693,VALID,6,VALID,0.215625,
2012-04-22, 02:37:04,VALID,916.205,VALID,0,VALID,94.1416,VALID,0.107441,VALID,20.1483,VALID,5,VALID,0,
2012-04-22, 02:38:04,VALID,916.169,VALID,0,VALID,94.1492,VALID,0,VALID,20.1693,VALID,6,VALID,0,
2012-04-22, 02:39:04,VALID,916.167,VALID,0,VALID,94.0958,VALID,0,VALID,20.1483,VALID,5,VALID,0.469141,
2012-04-22, 02:40:04,VALID,916.147,VALID,0,VALID,94.0348,VALID,0,VALID,20.1888,VALID,6,VALID,0.588281,
2012-04-22, 02:41:04,VALID,916.146,VALID,0,VALID,93.9357,VALID,0.107441,VALID,20.2068,VALID,6,VALID,0.607422,
2012-04-22, 02:42:04,VALID,916.133,VALID,0,VALID,93.7604,VALID,0,VALID,20.2473,VALID,6,VALID,1.08047,
2012-04-22, 02:43:04,VALID,916.096,VALID,0,VALID,93.5927,VALID,0,VALID,20.2653,VALID,5,VALID,0.803125,
2012-04-22, 02:44:04,VALID,916.091,VALID,0,VALID,93.3792,VALID,0,VALID,20.2848,VALID,6,VALID,0.803125,
2012-04-22, 02:45:04,VALID,916.082,VALID,0,VALID,93.2039,VALID,0,VALID,20.3043,VALID,6,VALID,0.670313,
2012-04-22, 02:46:04,VALID,916.024,VALID,0,VALID,93.1353,VALID,0,VALID,20.3058,VALID,6,VALID,0.594922,
2012-04-22, 02:47:04,VALID,916.021,VALID,0,VALID,93.1734,VALID,0,VALID,20.2848,VALID,5,VALID,0.692578,
2012-04-22, 02:48:04,VALID,916.006,VALID,0,VALID,93.1048,VALID,0.107441,VALID,20.2848,VALID,6,VALID,0.496094,
2012-04-22, 02:49:04,VALID,915.992,VALID,0,VALID,93.3411,VALID,0,VALID,20.3058,VALID,6,VALID,0.640625,
2012-04-22, 02:50:04,VALID,915.985,VALID,0,VALID,93.5088,VALID,0,VALID,20.2848,VALID,6,VALID,0.339063,
2012-04-22, 02:51:04,VALID,915.965,VALID,0,VALID,93.5774,VALID,0,VALID,20.3043,VALID,5,VALID,0.204297,
2012-04-22, 02:52:04,VALID,915.928,VALID,0,VALID,93.4783,VALID,0,VALID,20.3043,VALID,5,VALID,0.24375,
2012-04-22, 02:53:04,VALID,915.899,VALID,0,VALID,93.2877,VALID,0,VALID,20.3058,VALID,5,VALID,0.707812,
2012-04-22, 02:54:04,VALID,915.867,VALID,0,VALID,93.3335,VALID,0,VALID,20.2653,VALID,6,VALID,0.478125,
2012-04-22, 02:55:04,VALID,915.86,VALID,0,VALID,93.3182,VALID,0,VALID,20.2458,VALID,6,VALID,0.478906,
2012-04-22, 02:56:04,VALID,915.828,VALID,0,VALID,93.3182,VALID,0,VALID,20.2668,VALID,5,VALID,0.408594,
2012-04-22, 02:57:04,VALID,915.813,VALID,0,VALID,93.3335,VALID,0,VALID,20.2278,VALID,6,VALID,0.260547,
2012-04-22, 02:58:04,VALID,915.781,VALID,0,VALID,93.4021,VALID,0,VALID,20.1873,VALID,6,VALID,0.1375,
2012-04-22, 02:59:04,VALID,915.749,VALID,0,VALID,93.4097,VALID,0.107441,VALID,20.1888,VALID,6,VALID,0,
2012-04-22, 03:00:04,VALID,915.744,VALID,0,VALID,93.6537,VALID,0,VALID,20.1483,VALID,6,VALID,0,
2012-04-22, 03:01:04,VALID,915.738,VALID,0,VALID,93.7833,VALID,0,VALID,20.1288,VALID,6,VALID,0,
2012-04-22, 03:02:04,VALID,915.723,VALID,0,VALID,93.7147,VALID,0,VALID,20.1303,VALID,6,VALID,0.371484,
2012-04-22, 03:03:04,VALID,915.717,VALID,0,VALID,93.6308,VALID,0,VALID,20.0898,VALID,6,VALID,0.482031,
2012-04-22, 03:04:04,VALID,915.705,VALID,0,VALID,93.4707,VALID,0,VALID,20.0913,VALID,6,VALID,0.594141,
2012-04-22, 03:05:04,VALID,915.679,VALID,0,VALID,93.3411,VALID,0,VALID,20.1123,VALID,6,VALID,0.507031,
2012-04-22, 03:06:04,VALID,915.665,VALID,0,VALID,93.2801,VALID,0,VALID,20.0718,VALID,6,VALID,0.527734,
2012-04-22, 03:07:04,VALID,915.647,VALID,0,VALID,93.2649,VALID,0,VALID,20.0523,VALID,6,VALID,0.382031,
2012-04-22, 03:08:04,VALID,915.64,VALID,0,VALID,93.3106,VALID,0,VALID,20.0118,VALID,6,VALID,0.409375,
2012-04-22, 03:09:04,VALID,915.643,VALID,0,VALID,93.3564,VALID,0,VALID,19.9938,VALID,6,VALID,0.335938,
2012-04-22, 03:10:04,VALID,915.623,VALID,0,VALID,93.4326,VALID,0,VALID,19.9743,VALID,6,VALID,0.346094,
2012-04-22, 03:11:04,VALID,915.622,VALID,0,VALID,93.4631,VALID,0,VALID,19.9548,VALID,6,VALID,0.570703,
2012-04-22, 03:12:04,VALID,915.619,VALID,0,VALID,93.425,VALID,0,VALID,19.9548,VALID,6,VALID,0.582422,
2012-04-22, 03:13:04,VALID,915.599,VALID,0,VALID,93.2572,VALID,0,VALID,19.9728,VALID,6,VALID,0.696875,
2012-04-22, 03:14:04,VALID,915.591,VALID,0,VALID,93.0972,VALID,0,VALID,20.0133,VALID,6,VALID,0.555859,
2012-04-22, 03:15:04,VALID,915.598,VALID,0,VALID,92.9828,VALID,0,VALID,20.0118,VALID,6,VALID,0.535937,
2012-04-22, 03:16:04,VALID,915.6,VALID,0,VALID,92.9599,VALID,0,VALID,20.0133,VALID,6,VALID,0.494922,
2012-04-22, 03:17:04,VALID,915.578,VALID,0,VALID,93.0667,VALID,0,VALID,19.9743,VALID,6,VALID,0.514453,
2012-04-22, 03:18:04,VALID,915.554,VALID,0,VALID,93.1963,VALID,0,VALID,19.9548,VALID,6,VALID,0.331641,
2012-04-22, 03:19:04,VALID,915.565,VALID,0,VALID,93.2877,VALID,0,VALID,19.9353,VALID,6,VALID,0.247266,
2012-04-22, 03:20:04,VALID,915.545,VALID,0,VALID,93.4326,VALID,0,VALID,19.8768,VALID,6,VALID,0.398828,
2012-04-22, 03:21:04,VALID,915.521,VALID,0,VALID,93.5622,VALID,0,VALID,19.8573,VALID,6,VALID,0.649219,
2012-04-22, 03:22:04,VALID,915.507,VALID,0,VALID,93.6689,VALID,0,VALID,19.7973,VALID,6,VALID,0.729688,
2012-04-22, 03:23:04,VALID,915.484,VALID,0,VALID,93.7756,VALID,0,VALID,19.7973,VALID,6,VALID,0.921875,
2012-04-22, 03:24:04,VALID,915.465,VALID,0,VALID,93.8671,VALID,0,VALID,19.7973,VALID,6,VALID,0.810156,
2012-04-22, 03:25:04,VALID,915.446,VALID,0,VALID,93.8443,VALID,0,VALID,19.8363,VALID,6,VALID,0.725781,
2012-04-22, 03:26:04,VALID,915.399,VALID,0,VALID,93.8366,VALID,0,VALID,19.8363,VALID,6,VALID,0.657812,
2012-04-22, 03:27:04,VALID,915.419,VALID,0,VALID,93.7909,VALID,0,VALID,19.8768,VALID,6,VALID,0.631641,
2012-04-22, 03:28:04,VALID,915.421,VALID,0,VALID,93.7451,VALID,0,VALID,19.8768,VALID,6,VALID,0.591797,
2012-04-22, 03:29:04,VALID,915.402,VALID,0,VALID,93.6842,VALID,0,VALID,19.9158,VALID,6,VALID,0.435547,
2012-04-22, 03:30:04,VALID,915.39,VALID,0,VALID,93.646,VALID,0,VALID,19.9158,VALID,6,VALID,0.477344,
2012-04-22, 03:31:04,VALID,915.42,VALID,0,VALID,93.6689,VALID,0,VALID,19.8963,VALID,6,VALID,0.494922,
2012-04-22, 03:32:04,VALID,915.388,VALID,0,VALID,93.768,VALID,0,VALID,19.8768,VALID,6,VALID,0.531641,
2012-04-22, 03:33:04,VALID,915.388,VALID,0,VALID,93.9281,VALID,0,VALID,19.8768,VALID,6,VALID,0.55625,
2012-04-22, 03:34:04,VALID,915.391,VALID,0,VALID,94.1416,VALID,0.107441,VALID,19.8378,VALID,6,VALID,0.834375,
2012-04-22, 03:35:04,VALID,915.338,VALID,0,VALID,94.3626,VALID,0,VALID,19.8393,VALID,6,VALID,0.492188,
2012-04-22, 03:36:04,VALID,915.335,VALID,0,VALID,94.5227,VALID,0,VALID,19.7793,VALID,6,VALID,0.243359,
2012-04-22, 03:37:04,VALID,915.35,VALID,0,VALID,94.66,VALID,0,VALID,19.7793,VALID,6,VALID,0,
2012-04-22, 03:38:04,VALID,915.362,VALID,0,VALID,94.7438,VALID,0,VALID,19.7598,VALID,6,VALID,0.4125,
2012-04-22, 03:39:04,VALID,915.32,VALID,0,VALID,94.8734,VALID,0,VALID,19.7598,VALID,6,VALID,0.362109,
2012-04-22, 03:40:04,VALID,915.311,VALID,0,VALID,94.9649,VALID,0,VALID,19.7403,VALID,6,VALID,0.315625,
2012-04-22, 03:41:04,VALID,915.278,VALID,0,VALID,95.003,VALID,0,VALID,19.6983,VALID,6,VALID,0,
2012-04-22, 03:42:04,VALID,915.304,VALID,0,VALID,95.0259,VALID,0,VALID,19.7208,VALID,6,VALID,0,
2012-04-22, 03:43:04,VALID,915.266,VALID,0,VALID,95.0716,VALID,0,VALID,19.7208,VALID,6,VALID,0,
2012-04-22, 03:44:04,VALID,915.275,VALID,0,VALID,95.0259,VALID,0,VALID,19.6998,VALID,6,VALID,0,
2012-04-22, 03:45:04,VALID,915.275,VALID,0,VALID,94.9268,VALID,0,VALID,19.7013,VALID,6,VALID,0,
2012-04-22, 03:46:04,VALID,915.282,VALID,0,VALID,94.8887,VALID,0,VALID,19.6833,VALID,6,VALID,0,
2012-04-22, 03:47:04,VALID,915.261,VALID,0,VALID,94.9039,VALID,0,VALID,19.6638,VALID,6,VALID,0,
2012-04-22, 03:48:04,VALID,915.232,VALID,0,VALID,94.9192,VALID,0,VALID,19.6428,VALID,6,VALID,0.947656,
2012-04-22, 03:49:04,VALID,915.234,VALID,0,VALID,94.9039,VALID,0,VALID,19.6428,VALID,99,VALID,0.927734,
2012-04-22, 03:50:04,VALID,915.267,VALID,0,VALID,94.8963,VALID,0,VALID,19.6443,VALID,99,VALID,0.865234,